Location: Unspecified
(0.0000°N, 0.0000°E)
Time: 18:48:27
(UTC+00:00)

STRAND 1 - Visible Passes

Search period start: 24 June 2018 00:00
Search period end: 04 July 2018 00:00
Orbit: 769 x 780 km, 98.5° (Epoch: 24 June)

Date Brightness Start Highest point End Pass type
(mag) Time Alt. Az. Time Alt. Az. Time Alt. Az.
24 Jun ? 19:27:35 10° N 19:32:36 57° WNW 19:37:37 10° SSW visible
25 Jun ? 18:53:46 10° NNE 18:58:45 54° ESE 19:03:45 10° S visible
26 Jun ? 18:21:11 10° NE 18:24:57 21° ESE 18:28:40 10° SSE visible
26 Jun ? 19:59:49 10° NNW 20:03:50 24° WNW 20:07:52 10° SW visible
27 Jun ? 19:24:57 10° N 19:30:00 62° WNW 19:35:04 10° SSW visible
28 Jun ? 18:51:14 10° NNE 18:56:11 50° ESE 19:01:06 10° S visible
29 Jun ? 19:57:06 10° NNW 20:01:15 25° WNW 20:05:25 10° SW visible
30 Jun ? 19:22:21 10° N 19:27:25 67° WNW 19:32:30 10° SSW visible
01 Jul ? 18:48:42 10° NNE 18:53:35 46° ESE 18:58:27 10° S visible
02 Jul ? 19:54:23 10° NNW 19:58:39 27° WNW 20:02:56 10° SW visible
03 Jul ? 19:19:44 10° N 19:24:49 72° WNW 19:29:55 10° SSW visible
